Time,TemperatureF,DewpointF,PressureIn,WindDirection,WindDirectionDegrees,WindSpeedMPH,WindSpeedGustMPH,Humidity,HourlyPrecipIn,Conditions,Clouds,dailyrainin,SoftwareType,DateUTC
2013-07-31 00:01:00,69.6,65.5,30.21,West,276,0.0,0.0,87,0.00,CLR,CLR,0.00,WeatherDisplay:10.37,2013-07-31 04:01:00,
2013-07-31 00:06:00,69.4,65.7,30.22,West,276,0.0,0.0,88,0.00,CLR,CLR,0.00,WeatherDisplay:10.37,2013-07-31 04:06:00,
2013-07-31 00:11:00,69.3,65.6,30.21,West,276,0.0,0.0,88,0.00,CLR,CLR,0.00,WeatherDisplay:10.37,2013-07-31 04:11:00,
2013-07-31 00:16:00,69.1,65.4,30.21,West,276,0.0,0.0,88,0.00,CLR,CLR,0.00,WeatherDisplay:10.37,2013-07-31 04:16:00,
2013-07-31 00:21:00,69.0,65.6,30.21,West,276,0.0,0.0,89,0.01,RA,RA,0.01,WeatherDisplay:10.37,2013-07-31 04:21:00,
2013-07-31 00:31:00,68.6,65.6,30.21,West,276,0.0,0.0,90,0.00,CLR,CLR,0.01,WeatherDisplay:10.37,2013-07-31 04:31:00,
2013-07-31 00:41:00,68.4,65.7,30.20,West,276,0.0,0.0,91,0.00,CLR,CLR,0.01,WeatherDisplay:10.37,2013-07-31 04:41:00,
2013-07-31 00:51:00,68.1,65.7,30.20,West,276,0.0,0.0,92,0.00,CLR,CLR,0.01,WeatherDisplay:10.37,2013-07-31 04:51:00,
2013-07-31 00:56:00,68.0,65.6,30.20,West,276,0.0,0.0,92,0.00,CLR,CLR,0.01,WeatherDisplay:10.37,2013-07-31 04:56:00,
2013-07-31 01:01:00,67.8,65.4,30.20,West,276,0.0,0.0,92,0.00,CLR,CLR,0.01,WeatherDisplay:10.37,2013-07-31 05:01:00,
2013-07-31 01:11:00,67.5,65.4,30.20,West,276,0.0,0.0,93,0.00,CLR,CLR,0.01,WeatherDisplay:10.37,2013-07-31 05:11:00,
2013-07-31 01:16:00,67.4,65.3,30.19,West,276,0.0,0.0,93,0.00,CLR,CLR,0.01,WeatherDisplay:10.37,2013-07-31 05:16:00,
2013-07-31 01:21:00,67.3,65.2,30.19,West,276,0.0,0.0,93,0.00,CLR,CLR,0.01,WeatherDisplay:10.37,2013-07-31 05:21:00,
2013-07-31 01:31:00,67.1,65.0,30.19,West,276,0.0,0.0,93,0.00,CLR,CLR,0.01,WeatherDisplay:10.37,2013-07-31 05:31:00,
2013-07-31 01:41:00,66.9,65.1,30.19,West,276,0.0,1.0,94,0.00,CLR,CLR,0.01,WeatherDisplay:10.37,2013-07-31 05:41:00,
2013-07-31 01:51:00,66.8,65.0,30.19,West,276,0.0,0.0,94,0.00,CLR,CLR,0.01,WeatherDisplay:10.37,2013-07-31 05:51:00,
2013-07-31 01:56:00,66.8,65.3,30.18,West,276,0.0,0.0,95,0.00,CLR,CLR,0.01,WeatherDisplay:10.37,2013-07-31 05:56:00,
2013-07-31 02:01:00,66.8,65.3,30.18,West,276,0.0,0.0,95,0.00,CLR,CLR,0.01,WeatherDisplay:10.37,2013-07-31 06:01:00,
2013-07-31 02:11:00,66.6,64.8,30.18,West,276,0.0,1.0,94,0.00,CLR,CLR,0.01,WeatherDisplay:10.37,2013-07-31 06:11:00,
2013-07-31 02:21:00,66.5,65.0,30.18,West,276,0.0,0.0,95,0.00,CLR,CLR,0.01,WeatherDisplay:10.37,2013-07-31 06:21:00,
2013-07-31 02:26:00,66.5,65.0,30.17,West,276,0.0,0.0,95,0.00,CLR,CLR,0.01,WeatherDisplay:10.37,2013-07-31 06:26:00,
2013-07-31 02:31:00,66.5,65.0,30.17,West,276,0.0,0.0,95,0.00,CLR,CLR,0.01,WeatherDisplay:10.37,2013-07-31 06:31:00,
2013-07-31 02:36:00,66.4,64.9,30.17,West,276,0.0,0.0,95,0.00,CLR,CLR,0.01,WeatherDisplay:10.37,2013-07-31 06:36:00,
2013-07-31 02:46:00,66.2,64.8,30.17,West,276,0.0,0.0,95,0.00,CLR,CLR,0.01,WeatherDisplay:10.37,2013-07-31 06:46:00,
2013-07-31 02:51:00,66.2,64.7,30.17,West,276,0.0,1.0,95,0.00,CLR,CLR,0.01,WeatherDisplay:10.37,2013-07-31 06:51:00,
2013-07-31 03:01:00,66.0,64.8,30.17,NNE,23,0.0,0.0,96,0.00,,,0.01,WeatherDisplay:10.37,2013-07-31 07:01:00,
2013-07-31 03:11:00,66.0,64.8,30.16,NNE,25,0.0,0.0,96,0.00,,,0.01,WeatherDisplay:10.37,2013-07-31 07:11:00,
2013-07-31 03:16:00,66.0,64.8,30.16,NNE,25,0.0,0.0,96,0.00,,,0.01,WeatherDisplay:10.37,2013-07-31 07:16:00,
2013-07-31 03:21:00,66.0,64.8,30.16,NNE,25,0.0,0.0,96,0.00,,,0.01,WeatherDisplay:10.37,2013-07-31 07:21:00,
2013-07-31 03:26:00,66.0,64.8,30.17,NNE,25,0.0,0.0,96,0.00,,,0.01,WeatherDisplay:10.37,2013-07-31 07:26:00,
2013-07-31 03:31:00,66.0,64.8,30.16,NNE,25,0.0,0.0,96,0.00,,,0.01,WeatherDisplay:10.37,2013-07-31 07:31:00,
2013-07-31 03:41:00,65.9,64.7,30.16,NNE,25,0.0,0.0,96,0.00,,,0.01,WeatherDisplay:10.37,2013-07-31 07:41:00,
2013-07-31 03:46:00,65.9,64.7,30.16,NNE,25,0.0,0.0,96,0.00,,,0.01,WeatherDisplay:10.37,2013-07-31 07:46:00,
2013-07-31 03:51:00,65.9,64.7,30.16,NNE,25,0.0,0.0,96,0.00,,,0.01,WeatherDisplay:10.37,2013-07-31 07:51:00,
2013-07-31 04:01:00,65.9,65.0,30.17,NNE,25,0.0,2.0,97,0.00,,,0.01,WeatherDisplay:10.37,2013-07-31 08:01:00,
2013-07-31 04:11:00,65.8,64.9,30.16,NNE,25,0.0,0.0,97,0.00,,,0.01,WeatherDisplay:10.37,2013-07-31 08:11:00,
2013-07-31 04:16:00,65.8,64.9,30.16,NNE,25,0.0,0.0,97,0.00,,,0.01,WeatherDisplay:10.37,2013-07-31 08:16:00,
2013-07-31 04:21:00,65.8,64.9,30.15,NNE,25,0.0,0.0,97,0.00,,,0.01,WeatherDisplay:10.37,2013-07-31 08:21:00,
2013-07-31 04:31:00,65.8,64.9,30.16,NNE,25,0.0,0.0,97,0.00,,,0.01,WeatherDisplay:10.37,2013-07-31 08:31:00,
2013-07-31 04:41:00,65.9,65.0,30.16,NNE,25,0.0,0.0,97,0.00,,,0.01,WeatherDisplay:10.37,2013-07-31 08:41:00,
2013-07-31 04:51:00,65.9,65.0,30.15,NNE,25,0.0,0.0,97,0.00,,,0.01,WeatherDisplay:10.37,2013-07-31 08:51:00,
2013-07-31 04:56:00,65.8,65.0,30.15,NNE,25,0.0,0.0,97,0.00,,,0.01,WeatherDisplay:10.37,2013-07-31 08:56:00,
2013-07-31 05:01:00,65.8,64.9,30.15,NNE,25,0.0,0.0,97,0.00,,,0.01,WeatherDisplay:10.37,2013-07-31 09:01:00,
2013-07-31 05:11:00,65.9,65.0,30.14,NNE,25,0.0,0.0,97,0.00,,,0.01,WeatherDisplay:10.37,2013-07-31 09:11:00,
2013-07-31 05:16:00,65.9,65.0,30.14,NNE,25,0.0,0.0,97,0.00,,,0.01,WeatherDisplay:10.37,2013-07-31 09:16:00,
2013-07-31 05:21:00,65.9,65.0,30.14,NNE,25,0.0,0.0,97,0.00,,,0.01,WeatherDisplay:10.37,2013-07-31 09:21:00,
2013-07-31 05:31:00,65.8,64.9,30.15,NNE,25,0.0,0.0,97,0.00,,,0.01,WeatherDisplay:10.37,2013-07-31 09:31:00,
2013-07-31 05:41:00,65.8,64.9,30.15,NE,34,0.0,1.0,97,0.00,,,0.01,WeatherDisplay:10.37,2013-07-31 09:41:00,
2013-07-31 05:46:00,65.7,64.8,30.15,ENE,58,0.0,1.0,97,0.00,,,0.01,WeatherDisplay:10.37,2013-07-31 09:46:00,
2013-07-31 05:51:00,65.7,64.8,30.16,ENE,77,0.0,1.0,97,0.01,RA,RA,0.02,WeatherDisplay:10.37,2013-07-31 09:51:00,
2013-07-31 06:01:00,66.2,65.6,30.16,SSW,198,2.0,11.0,98,0.00,RA,RA,0.04,WeatherDisplay:10.37,2013-07-31 10:01:00,
2013-07-31 06:11:00,66.9,66.6,30.16,South,174,1.0,2.0,99,0.00,CLR,CLR,0.04,WeatherDisplay:10.37,2013-07-31 10:11:00,
2013-07-31 06:16:00,66.9,66.3,30.16,South,177,0.0,1.0,98,0.00,CLR,CLR,0.04,WeatherDisplay:10.37,2013-07-31 10:16:00,
2013-07-31 06:21:00,66.9,66.3,30.16,South,182,0.0,5.0,98,0.00,CLR,CLR,0.04,WeatherDisplay:10.37,2013-07-31 10:21:00,
2013-07-31 06:31:00,66.9,66.4,30.16,SSW,198,0.0,2.0,98,0.00,CLR,CLR,0.04,WeatherDisplay:10.37,2013-07-31 10:31:00,
2013-07-31 06:41:00,66.9,66.3,30.16,SSW,204,0.0,0.0,98,0.00,CLR,CLR,0.04,WeatherDisplay:10.37,2013-07-31 10:41:00,
2013-07-31 06:51:00,66.9,66.3,30.16,SSW,204,0.0,0.0,98,0.00,CLR,CLR,0.04,WeatherDisplay:10.37,2013-07-31 10:51:00,
2013-07-31 07:01:00,66.9,66.3,30.16,SSW,204,0.0,0.0,98,0.00,,,0.04,WeatherDisplay:10.37,2013-07-31 11:01:00,
2013-07-31 07:11:00,67.0,66.4,30.17,SSW,204,0.0,1.0,98,0.00,,,0.04,WeatherDisplay:10.37,2013-07-31 11:11:00,
2013-07-31 07:21:00,67.0,66.4,30.17,SSW,204,0.0,0.0,98,0.00,,,0.04,WeatherDisplay:10.37,2013-07-31 11:21:00,
2013-07-31 07:31:00,66.9,66.3,30.17,SW,214,2.0,16.0,98,0.07,RA,RA,0.11,WeatherDisplay:10.37,2013-07-31 11:31:00,
2013-07-31 07:41:00,66.8,66.2,30.17,SSW,199,2.0,14.0,98,0.00,RA,RA,0.12,WeatherDisplay:10.37,2013-07-31 11:41:00,
2013-07-31 07:51:00,66.7,66.1,30.17,SSW,199,0.0,4.0,98,0.01,RA,RA,0.13,WeatherDisplay:10.37,2013-07-31 11:51:00,
2013-07-31 08:01:00,66.5,65.6,30.18,SSW,201,2.0,14.0,97,0.00,,,0.13,WeatherDisplay:10.37,2013-07-31 12:01:00,
2013-07-31 08:11:00,66.0,65.2,30.18,SSW,198,5.0,9.0,97,0.00,CLR,CLR,0.13,WeatherDisplay:10.37,2013-07-31 12:11:00,
2013-07-31 08:16:00,65.9,65.0,30.18,SSW,200,2.0,11.0,97,0.00,CLR,CLR,0.13,WeatherDisplay:10.37,2013-07-31 12:16:00,
2013-07-31 08:21:00,65.8,64.9,30.17,SSW,193,3.0,11.0,97,0.00,CLR,CLR,0.13,WeatherDisplay:10.37,2013-07-31 12:21:00,
2013-07-31 08:31:00,65.7,64.8,30.17,SSW,202,0.0,9.0,97,0.00,CLR,CLR,0.13,WeatherDisplay:10.37,2013-07-31 12:31:00,
2013-07-31 08:41:00,65.6,64.8,30.17,SW,215,0.0,1.0,97,0.00,,,0.13,WeatherDisplay:10.37,2013-07-31 12:41:00,
2013-07-31 08:51:00,65.6,64.7,30.17,SSW,204,1.0,4.0,97,0.00,,,0.13,WeatherDisplay:10.37,2013-07-31 12:51:00,
2013-07-31 09:01:00,65.6,64.7,30.17,SSW,210,0.0,5.0,97,0.00,,,0.13,WeatherDisplay:10.37,2013-07-31 13:01:00,
2013-07-31 09:11:00,65.5,64.6,30.17,SSW,201,2.0,9.0,97,0.00,CLR,CLR,0.13,WeatherDisplay:10.37,2013-07-31 13:11:00,
2013-07-31 09:21:00,65.4,64.5,30.17,SSW,206,0.0,2.0,97,0.00,,,0.13,WeatherDisplay:10.37,2013-07-31 13:21:00,
2013-07-31 09:31:00,65.4,64.5,30.16,SSW,199,0.0,3.0,97,0.00,,,0.13,WeatherDisplay:10.37,2013-07-31 13:31:00,
2013-07-31 09:41:00,65.4,64.2,30.16,SSW,194,0.0,5.0,96,0.00,,,0.13,WeatherDisplay:10.37,2013-07-31 13:41:00,
2013-07-31 09:46:00,65.4,64.2,30.16,SSW,202,0.0,0.0,96,0.00,,,0.13,WeatherDisplay:10.37,2013-07-31 13:46:00,
2013-07-31 09:51:00,65.5,64.6,30.16,SSW,204,0.0,0.0,97,0.00,,,0.13,WeatherDisplay:10.37,2013-07-31 13:51:00,
2013-07-31 09:56:00,65.6,64.7,30.16,SSW,204,0.0,0.0,97,0.00,,,0.13,WeatherDisplay:10.37,2013-07-31 13:56:00,
2013-07-31 10:01:00,65.7,64.8,30.16,SSW,204,0.0,0.0,97,0.00,,,0.13,WeatherDisplay:10.37,2013-07-31 14:01:00,
2013-07-31 10:11:00,66.0,65.4,30.16,SSW,204,0.0,0.0,98,0.00,,,0.13,WeatherDisplay:10.37,2013-07-31 14:11:00,
2013-07-31 10:21:00,66.5,65.9,30.16,SSW,204,0.0,0.0,98,0.00,,,0.13,WeatherDisplay:10.37,2013-07-31 14:21:00,
2013-07-31 10:26:00,66.6,66.0,30.16,SSW,204,0.0,0.0,98,0.01,RA,RA,0.14,WeatherDisplay:10.37,2013-07-31 14:26:00,
2013-07-31 10:31:00,66.5,65.6,30.16,SSW,204,0.0,0.0,97,0.01,RA,RA,0.14,WeatherDisplay:10.37,2013-07-31 14:31:00,
2013-07-31 10:41:00,66.6,66.0,30.15,SSW,204,0.0,0.0,98,0.00,CLR,CLR,0.14,WeatherDisplay:10.37,2013-07-31 14:41:00,
2013-07-31 10:46:00,66.7,66.1,30.15,SSW,204,0.0,0.0,98,0.00,CLR,CLR,0.14,WeatherDisplay:10.37,2013-07-31 14:46:00,
2013-07-31 10:51:00,66.8,66.2,30.15,SSW,204,0.0,0.0,98,0.00,CLR,CLR,0.14,WeatherDisplay:10.37,2013-07-31 14:51:00,
2013-07-31 11:01:00,67.0,66.4,30.15,SSW,204,0.0,0.0,98,0.00,CLR,CLR,0.14,WeatherDisplay:10.37,2013-07-31 15:01:00,
2013-07-31 11:11:00,67.4,66.8,30.15,SSW,204,0.0,0.0,98,0.00,CLR,CLR,0.14,WeatherDisplay:10.37,2013-07-31 15:11:00,
2013-07-31 11:21:00,67.6,67.0,30.15,SSW,204,0.0,0.0,98,0.01,RA,RA,0.15,WeatherDisplay:10.37,2013-07-31 15:21:00,
2013-07-31 11:31:00,67.8,67.2,30.14,SSW,204,0.0,0.0,98,0.00,,,0.15,WeatherDisplay:10.37,2013-07-31 15:31:00,
2013-07-31 11:41:00,68.1,67.5,30.14,SSW,204,0.0,0.0,98,0.00,CLR,CLR,0.15,WeatherDisplay:10.37,2013-07-31 15:41:00,
2013-07-31 11:46:00,68.3,67.7,30.14,SSW,204,0.0,0.0,98,0.00,CLR,CLR,0.15,WeatherDisplay:10.37,2013-07-31 15:46:00,
2013-07-31 11:51:00,68.4,67.8,30.13,SSW,204,0.0,0.0,98,0.00,CLR,CLR,0.15,WeatherDisplay:10.37,2013-07-31 15:51:00,
2013-07-31 12:01:00,68.6,68.0,30.13,SW,218,0.0,1.0,98,0.00,CLR,CLR,0.15,WeatherDisplay:10.37,2013-07-31 16:01:00,
2013-07-31 12:11:00,68.5,67.6,30.13,SW,222,0.0,4.0,97,0.00,CLR,CLR,0.15,WeatherDisplay:10.37,2013-07-31 16:11:00,
2013-07-31 12:16:00,68.5,67.6,30.12,SW,222,0.0,1.0,97,0.00,CLR,CLR,0.15,WeatherDisplay:10.37,2013-07-31 16:16:00,
2013-07-31 12:21:00,68.5,67.6,30.12,SW,222,0.0,0.0,97,0.00,CLR,CLR,0.15,WeatherDisplay:10.37,2013-07-31 16:21:00,
2013-07-31 12:31:00,68.8,68.2,30.12,SW,219,0.0,7.0,98,0.00,,,0.15,WeatherDisplay:10.37,2013-07-31 16:31:00,
2013-07-31 12:41:00,68.7,67.5,30.12,SW,223,2.0,8.0,96,0.00,,,0.15,WeatherDisplay:10.37,2013-07-31 16:41:00,
2013-07-31 12:46:00,68.7,67.5,30.12,SSW,209,0.0,5.0,96,0.00,,,0.15,WeatherDisplay:10.37,2013-07-31 16:46:00,
2013-07-31 12:51:00,68.8,67.6,30.12,SSW,202,0.0,4.0,96,0.00,,,0.15,WeatherDisplay:10.37,2013-07-31 16:51:00,
2013-07-31 13:01:00,69.0,67.8,30.12,SSW,211,1.0,7.0,96,0.00,,,0.15,WeatherDisplay:10.37,2013-07-31 17:01:00,
2013-07-31 13:11:00,69.4,68.5,30.12,SSW,197,0.0,1.0,97,0.00,,,0.15,WeatherDisplay:10.37,2013-07-31 17:11:00,
2013-07-31 13:21:00,69.7,68.8,30.11,SSW,197,0.0,0.0,97,0.00,,,0.15,WeatherDisplay:10.37,2013-07-31 17:21:00,
2013-07-31 13:31:00,70.0,68.8,30.10,SSW,197,1.0,5.0,96,0.00,,,0.15,WeatherDisplay:10.37,2013-07-31 17:31:00,
2013-07-31 13:41:00,70.1,68.3,30.10,SSW,198,0.0,6.0,94,0.00,CLR,CLR,0.15,WeatherDisplay:10.37,2013-07-31 17:41:00,
2013-07-31 13:51:00,70.1,68.3,30.10,South,186,0.0,2.0,94,0.00,CLR,CLR,0.15,WeatherDisplay:10.37,2013-07-31 17:51:00,
2013-07-31 14:01:00,70.0,68.2,30.10,South,189,1.0,8.0,94,0.00,CLR,CLR,0.15,WeatherDisplay:10.37,2013-07-31 18:01:00,
2013-07-31 14:11:00,70.0,68.2,30.09,SSW,207,1.0,5.0,94,0.00,CLR,CLR,0.15,WeatherDisplay:10.37,2013-07-31 18:11:00,
2013-07-31 14:16:00,70.0,68.2,30.09,SSW,203,0.0,5.0,94,0.00,CLR,CLR,0.15,WeatherDisplay:10.37,2013-07-31 18:16:00,
2013-07-31 14:21:00,69.9,68.1,30.09,SSW,209,0.0,4.0,94,0.00,CLR,CLR,0.15,WeatherDisplay:10.37,2013-07-31 18:21:00,
2013-07-31 14:26:00,69.9,68.1,30.09,SSW,211,0.0,4.0,94,0.00,CLR,CLR,0.15,WeatherDisplay:10.37,2013-07-31 18:26:00,
2013-07-31 14:31:00,69.8,68.0,30.09,SSW,201,1.0,5.0,94,0.00,CLR,CLR,0.15,WeatherDisplay:10.37,2013-07-31 18:31:00,
2013-07-31 14:41:00,69.8,68.0,30.09,SSW,199,0.0,6.0,94,0.00,CLR,CLR,0.15,WeatherDisplay:10.37,2013-07-31 18:41:00,
2013-07-31 14:46:00,69.8,68.3,30.09,SSW,199,0.0,2.0,95,0.00,CLR,CLR,0.15,WeatherDisplay:10.37,2013-07-31 18:46:00,
2013-07-31 14:51:00,69.8,68.0,30.09,SSW,196,0.0,5.0,94,0.00,CLR,CLR,0.15,WeatherDisplay:10.37,2013-07-31 18:51:00,
2013-07-31 15:01:00,69.9,68.1,30.08,SSW,200,1.0,7.0,94,0.00,CLR,CLR,0.15,WeatherDisplay:10.37,2013-07-31 19:01:00,
2013-07-31 15:11:00,69.9,68.1,30.08,SSW,194,0.0,1.0,94,0.00,CLR,CLR,0.15,WeatherDisplay:10.37,2013-07-31 19:11:00,
2013-07-31 15:16:00,69.9,68.4,30.08,SSW,195,0.0,3.0,95,0.00,CLR,CLR,0.15,WeatherDisplay:10.37,2013-07-31 19:16:00,
2013-07-31 15:21:00,69.9,68.4,30.07,SSW,198,1.0,5.0,95,0.00,CLR,CLR,0.15,WeatherDisplay:10.37,2013-07-31 19:21:00,
2013-07-31 15:31:00,69.9,68.4,30.07,SSW,201,1.0,6.0,95,0.00,CLR,CLR,0.15,WeatherDisplay:10.37,2013-07-31 19:31:00,
2013-07-31 15:41:00,70.0,68.2,30.07,SSW,199,0.0,7.0,94,0.00,CLR,CLR,0.15,WeatherDisplay:10.37,2013-07-31 19:41:00,
2013-07-31 15:46:00,70.0,68.2,30.07,SSW,200,8.0,14.0,94,0.00,CLR,CLR,0.15,WeatherDisplay:10.37,2013-07-31 19:46:00,
2013-07-31 15:51:00,70.1,68.3,30.07,South,190,0.0,14.0,94,0.00,CLR,CLR,0.15,WeatherDisplay:10.37,2013-07-31 19:51:00,
2013-07-31 15:56:00,70.2,68.4,30.07,SSW,203,5.0,12.0,94,0.00,CLR,CLR,0.15,WeatherDisplay:10.37,2013-07-31 19:56:00,
2013-07-31 16:01:00,70.2,68.4,30.07,SSW,203,2.0,9.0,94,0.00,CLR,CLR,0.15,WeatherDisplay:10.37,2013-07-31 20:01:00,
2013-07-31 16:11:00,70.3,68.5,30.06,SW,230,2.0,11.0,94,0.00,CLR,CLR,0.15,WeatherDisplay:10.37,2013-07-31 20:11:00,
2013-07-31 16:21:00,70.3,68.2,30.06,SSW,211,2.0,11.0,93,0.00,CLR,CLR,0.15,WeatherDisplay:10.37,2013-07-31 20:21:00,
2013-07-31 16:31:00,70.3,68.2,30.06,SSW,212,2.0,17.0,93,0.00,CLR,CLR,0.15,WeatherDisplay:10.37,2013-07-31 20:31:00,
2013-07-31 16:41:00,70.1,68.0,30.06,SW,215,6.0,14.0,93,0.01,RA,RA,0.16,WeatherDisplay:10.37,2013-07-31 20:41:00,
2013-07-31 16:46:00,70.0,67.8,30.05,SW,215,1.0,9.0,93,0.00,,,0.16,WeatherDisplay:10.37,2013-07-31 20:46:00,
2013-07-31 16:51:00,69.8,68.0,30.05,SW,229,1.0,11.0,94,0.00,CLR,CLR,0.16,WeatherDisplay:10.37,2013-07-31 20:51:00,
2013-07-31 17:01:00,69.6,68.1,30.05,SW,215,0.0,6.0,95,0.00,CLR,CLR,0.16,WeatherDisplay:10.37,2013-07-31 21:01:00,
2013-07-31 17:11:00,69.4,67.9,30.04,SW,225,5.0,14.0,95,0.00,CLR,CLR,0.16,WeatherDisplay:10.37,2013-07-31 21:11:00,
2013-07-31 17:21:00,69.6,68.1,30.04,SSW,212,0.0,9.0,95,0.00,CLR,CLR,0.16,WeatherDisplay:10.37,2013-07-31 21:21:00,
2013-07-31 17:31:00,69.7,67.9,30.04,WSW,247,1.0,8.0,94,0.00,CLR,CLR,0.16,WeatherDisplay:10.37,2013-07-31 21:31:00,
2013-07-31 17:41:00,69.6,67.8,30.04,SW,231,1.0,8.0,94,0.00,CLR,CLR,0.16,WeatherDisplay:10.37,2013-07-31 21:41:00,
2013-07-31 17:51:00,69.6,67.8,30.04,SW,214,3.0,9.0,94,0.00,CLR,CLR,0.16,WeatherDisplay:10.37,2013-07-31 21:51:00,
2013-07-31 17:56:00,69.5,67.7,30.03,SW,215,1.0,11.0,94,0.00,CLR,CLR,0.16,WeatherDisplay:10.37,2013-07-31 21:56:00,
2013-07-31 18:01:00,69.5,67.7,30.03,SSW,211,0.0,9.0,94,0.00,CLR,CLR,0.16,WeatherDisplay:10.37,2013-07-31 22:01:00,
2013-07-31 18:11:00,69.3,67.5,30.02,South,189,2.0,6.0,94,0.00,CLR,CLR,0.16,WeatherDisplay:10.37,2013-07-31 22:11:00,
2013-07-31 18:21:00,69.3,67.5,30.02,SSW,196,0.0,7.0,94,0.00,CLR,CLR,0.16,WeatherDisplay:10.37,2013-07-31 22:21:00,
2013-07-31 18:31:00,69.3,67.8,30.02,South,181,0.0,1.0,95,0.00,CLR,CLR,0.16,WeatherDisplay:10.37,2013-07-31 22:31:00,
2013-07-31 18:41:00,69.5,68.0,30.02,South,182,0.0,1.0,95,0.00,CLR,CLR,0.16,WeatherDisplay:10.37,2013-07-31 22:41:00,
2013-07-31 18:51:00,69.6,67.8,30.02,SSW,209,3.0,8.0,94,0.00,CLR,CLR,0.16,WeatherDisplay:10.37,2013-07-31 22:51:00,
2013-07-31 19:01:00,69.6,68.1,30.01,SSW,202,2.0,8.0,95,0.00,CLR,CLR,0.16,WeatherDisplay:10.37,2013-07-31 23:01:00,
2013-07-31 19:16:00,69.7,68.2,30.01,SSW,212,0.0,1.0,95,0.00,CLR,CLR,0.16,WeatherDisplay:10.37,2013-07-31 23:16:00,
2013-07-31 19:21:00,69.8,68.3,30.02,SSW,212,3.0,9.0,95,0.00,CLR,CLR,0.16,WeatherDisplay:10.37,2013-07-31 23:21:00,
2013-07-31 19:31:00,69.7,67.9,30.02,SSW,211,1.0,7.0,94,0.00,CLR,CLR,0.16,WeatherDisplay:10.37,2013-07-31 23:31:00,
2013-07-31 19:41:00,69.7,68.2,30.02,SW,218,0.0,3.0,95,0.00,CLR,CLR,0.16,WeatherDisplay:10.37,2013-07-31 23:41:00,
2013-07-31 19:51:00,69.6,68.1,30.03,SSW,212,0.0,7.0,95,0.00,CLR,CLR,0.16,WeatherDisplay:10.37,2013-07-31 23:51:00,
2013-07-31 20:01:00,69.5,68.0,30.03,SSW,209,3.0,7.0,95,0.00,CLR,CLR,0.16,WeatherDisplay:10.37,2013-08-01 00:01:00,
2013-07-31 20:11:00,69.4,67.9,30.04,SSW,203,2.0,8.0,95,0.00,CLR,CLR,0.16,WeatherDisplay:10.37,2013-08-01 00:11:00,
2013-07-31 20:21:00,69.4,67.9,30.04,SSW,206,3.0,9.0,95,0.00,CLR,CLR,0.16,WeatherDisplay:10.37,2013-08-01 00:21:00,
2013-07-31 20:31:00,69.3,67.5,30.04,SSW,202,1.0,8.0,94,0.00,CLR,CLR,0.16,WeatherDisplay:10.37,2013-08-01 00:31:00,
2013-07-31 20:41:00,69.2,67.7,30.05,SSW,209,0.0,3.0,95,0.00,CLR,CLR,0.16,WeatherDisplay:10.37,2013-08-01 00:41:00,
2013-07-31 20:46:00,69.2,67.7,30.05,SSW,194,0.0,7.0,95,0.00,CLR,CLR,0.16,WeatherDisplay:10.37,2013-08-01 00:46:00,
2013-07-31 20:51:00,69.2,67.7,30.05,SSW,194,2.0,6.0,95,0.00,CLR,CLR,0.16,WeatherDisplay:10.37,2013-08-01 00:51:00,
2013-07-31 21:01:00,69.1,67.7,30.05,SSW,201,0.0,2.0,95,0.00,CLR,CLR,0.16,WeatherDisplay:10.37,2013-08-01 01:01:00,
2013-07-31 21:11:00,69.1,67.6,30.05,SSW,197,1.0,6.0,95,0.00,CLR,CLR,0.16,WeatherDisplay:10.37,2013-08-01 01:11:00,
2013-07-31 21:16:00,69.1,67.6,30.05,SSW,200,2.0,7.0,95,0.00,CLR,CLR,0.16,WeatherDisplay:10.37,2013-08-01 01:16:00,
2013-07-31 21:21:00,69.0,67.5,30.05,SSW,200,0.0,6.0,95,0.00,CLR,CLR,0.16,WeatherDisplay:10.37,2013-08-01 01:21:00,
2013-07-31 21:26:00,69.0,67.5,30.05,SSW,201,0.0,1.0,95,0.00,CLR,CLR,0.16,WeatherDisplay:10.37,2013-08-01 01:26:00,
2013-07-31 21:31:00,69.0,67.8,30.05,SSW,205,0.0,6.0,96,0.00,,,0.16,WeatherDisplay:10.37,2013-08-01 01:31:00,
2013-07-31 21:41:00,68.9,67.4,30.05,SSW,198,0.0,3.0,95,0.00,CLR,CLR,0.16,WeatherDisplay:10.37,2013-08-01 01:41:00,
2013-07-31 21:51:00,68.9,67.7,30.05,SW,217,0.0,7.0,96,0.00,,,0.16,WeatherDisplay:10.37,2013-08-01 01:51:00,
2013-07-31 22:01:00,68.9,67.7,30.05,SSW,197,1.0,5.0,96,0.00,,,0.16,WeatherDisplay:10.37,2013-08-01 02:01:00,
2013-07-31 22:11:00,68.9,67.7,30.05,SSW,201,0.0,0.0,96,0.00,,,0.16,WeatherDisplay:10.37,2013-08-01 02:11:00,
2013-07-31 22:16:00,68.9,67.7,30.05,SSW,201,1.0,3.0,96,0.00,,,0.16,WeatherDisplay:10.37,2013-08-01 02:16:00,
2013-07-31 22:21:00,68.9,67.7,30.05,SSW,201,0.0,1.0,96,0.00,,,0.16,WeatherDisplay:10.37,2013-08-01 02:21:00,
2013-07-31 22:31:00,68.8,67.6,30.05,SSW,201,0.0,1.0,96,0.00,,,0.16,WeatherDisplay:10.37,2013-08-01 02:31:00,
2013-07-31 22:36:00,68.8,67.6,30.05,SSW,201,0.0,0.0,96,0.00,,,0.16,WeatherDisplay:10.37,2013-08-01 02:36:00,
2013-07-31 22:41:00,68.7,67.5,30.05,SSW,201,0.0,0.0,96,0.00,,,0.16,WeatherDisplay:10.37,2013-08-01 02:41:00,
2013-07-31 22:46:00,68.7,67.5,30.05,SSW,201,0.0,1.0,96,0.00,,,0.16,WeatherDisplay:10.37,2013-08-01 02:46:00,
2013-07-31 22:51:00,68.7,67.5,30.05,SSW,201,0.0,3.0,96,0.00,,,0.16,WeatherDisplay:10.37,2013-08-01 02:51:00,
2013-07-31 23:01:00,68.7,67.5,30.05,SSW,201,0.0,1.0,96,0.00,,,0.16,WeatherDisplay:10.37,2013-08-01 03:01:00,
2013-07-31 23:11:00,68.6,67.4,30.05,SSW,201,0.0,1.0,96,0.00,,,0.16,WeatherDisplay:10.37,2013-08-01 03:11:00,
2013-07-31 23:21:00,68.6,67.4,30.05,SSW,201,0.0,1.0,96,0.00,,,0.16,WeatherDisplay:10.37,2013-08-01 03:21:00,
2013-07-31 23:31:00,68.7,67.5,30.04,SSW,201,1.0,2.0,96,0.00,,,0.16,WeatherDisplay:10.37,2013-08-01 03:31:00,
2013-07-31 23:41:00,68.7,67.5,30.04,SSW,201,0.0,0.0,96,0.00,,,0.16,WeatherDisplay:10.37,2013-08-01 03:41:00,
2013-07-31 23:46:00,68.7,67.5,30.04,SSW,201,0.0,1.0,96,0.00,,,0.16,WeatherDisplay:10.37,2013-08-01 03:46:00,
2013-07-31 23:51:00,68.7,67.5,30.04,SSW,200,2.0,5.0,96,0.00,,,0.16,WeatherDisplay:10.37,2013-08-01 03:51:00,
2013-07-31 23:56:00,68.7,67.5,30.05,SSW,196,0.0,7.0,96,0.00,,,0.16,WeatherDisplay:10.37,2013-08-01 03:56:00,